1496919601.17,13832,18.63,74108.8,12.65,-1.79,-7.23,0,*4F
1496919602.42,13833,18.63,74108.8,12.67,-2.35,-7.77,0,*46
1496919603.6,13834,18.63,74108.5,12.69,-2.87,-8.33,0,*49
1496919604.82,13835,18.63,74108.0,12.69,-2.15,-7.65,0,*4F
1496919606.04,13836,18.63,74110.8,12.69,-2.23,-7.65,0,*49
1496919607.29,13837,18.63,74108.5,12.73,-2.47,-8.07,0,*4A
1496919608.52,13838,18.63,74108.3,12.75,-3.27,-8.85,0,*4E
1496919609.74,13839,18.63,74110.3,12.75,-3.31,-8.93,0,*4F
1496919610.96,13840,18.63,74108.3,12.73,-3.87,-9.49,0,*4C
1496919612.18,13841,18.63,74112.8,12.73,-3.03,-8.51,0,*49
1496919613.42,13842,18.63,74112.3,12.75,-2.75,-8.25,0,*4F
1496919614.66,13843,18.63,74110.8,12.79,-2.47,-7.53,0,*4D
1496919615.93,13844,18.63,74108.0,12.79,-2.75,-7.99,0,*4D
1496919617.14,13845,18.63,74106.5,12.81,-3.47,-8.75,0,*46
1496919618.39,13846,18.63,74108.8,12.83,-2.83,-8.07,0,*4B
1496919619.6,13847,18.63,74108.3,12.83,-3.19,-8.33,0,*4F
1496919620.81,13848,18.63,74110.0,12.83,-3.23,-8.41,0,*4C
1496919622.05,13849,18.63,74110.5,12.85,-2.71,-7.77,0,*47
1496919623.29,13850,18.63,74108.3,12.85,-3.51,-8.51,0,*47
1496919624.53,13851,18.63,74108.8,12.87,-3.67,-8.89,0,*44
1496919625.75,13852,18.63,74108.0,12.87,-4.13,-9.05,0,*46
1496919626.98,13853,18.63,74110.8,12.87,-4.45,-9.57,0,*43
1496919628.2,13854,18.63,74106.8,12.87,-4.25,-9.27,0,*45
1496919629.44,13855,18.63,74110.3,12.87,-3.23,-7.99,0,*4E
1496919630.66,13856,18.63,74108.8,12.91,-3.31,-7.83,0,*42
1496919631.88,13857,18.63,74110.5,12.89,-3.51,-8.21,0,*4B
1496919633.13,13858,18.63,74110.5,12.97,-2.83,-7.43,0,*4E
1496919634.36,13859,18.63,74108.0,12.97,-3.83,-8.41,0,*43
1496919635.58,13860,18.63,74108.8,12.97,-4.37,-9.05,0,*40
1496919636.85,13861,18.63,74108.3,12.97,-4.81,-9.37,0,*4D
1496919638.07,13862,18.63,74106.8,12.99,-4.81,-9.23,0,*45
1496919639.26,13863,18.63,74106.5,12.99,-4.45,-8.93,0,*46
1496919640.45,13864,18.63,74110.0,12.99,-4.29,-8.67,0,*40
1496919641.66,13865,18.63,74108.8,12.99,-4.05,-8.37,0,*4A
1496919642.93,13866,18.63,74108.3,13.01,-3.43,-7.61,0,*40
1496919644.16,13867,18.63,74106.5,13.05,-2.19,-6.31,0,*4F
1496919645.38,13868,18.63,74110.5,13.07,-1.55,-5.81,0,*41
1496919646.66,13869,18.63,74108.0,13.09,-1.39,-5.61,0,*4A
1496919647.91,13870,18.63,74108.0,13.13,-2.47,-6.77,0,*47
1496919649.1,13871,18.63,74110.0,13.19,-2.31,-6.39,0,*47
1496919650.29,13872,18.63,74108.8,13.23,-2.27,-6.35,0,*46
1496919651.48,13873,18.63,74106.8,13.23,-2.27,-6.35,0,*47
1496919652.71,13874,18.63,74108.8,13.27,-2.83,-7.05,0,*48
1496919653.9,13875,18.63,74108.8,13.29,-4.53,-8.71,0,*40
1496919655.11,13876,18.63,74108.0,13.31,-4.05,-8.33,0,*4F
1496919656.31,13877,18.63,74108.3,13.33,-3.91,-8.21,0,*45
1496919657.58,13878,18.63,74108.0,13.35,-3.67,-7.91,0,*41
1496919658.78,13879,18.63,74110.0,13.35,-4.49,-8.75,0,*4E
1496919660.0,13880,18.63,74108.0,13.35,-2.79,-6.73,0,*45
1496919661.18,13881,18.63,74110.3,13.41,-0.65,-4.41,0,*7B
1496919662.37,13882,18.63,74110.0,13.49,-0.07,-3.79,0,*48
1496919663.58,13883,18.63,74108.5,13.53,-0.33,-4.01,0,*7D
1496919664.8,13884,18.63,74110.0,13.59,-1.33,-5.15,0,*45
1496919666.05,13885,18.63,74112.0,13.65,-1.79,-5.61,0,*46
1496919667.3,13886,18.63,74110.3,13.67,-1.83,-5.65,0,*46
1496919668.53,13887,18.63,74108.0,13.71,-1.83,-5.51,0,*47
1496919669.76,13888,18.63,74106.5,13.75,-1.71,-5.31,0,*47
1496919671.01,13889,18.63,74110.5,13.79,-1.43,-5.11,0,*49
1496919672.28,13890,18.63,74110.5,13.85,-1.91,-5.61,0,*4A
1496919673.5,13891,18.63,74108.0,13.89,-1.91,-5.47,0,*43
1496919674.73,13892,18.63,74110.5,13.93,-1.99,-5.43,0,*47
1496919675.95,13893,18.63,74110.0,13.95,-3.39,-7.15,0,*49
1496919677.2,13894,18.63,74108.0,13.95,-3.87,-7.43,0,*48
1496919678.39,13895,18.63,74110.5,14.01,-2.91,-6.35,0,*45
1496919679.67,13896,18.63,74110.3,13.99,-2.47,-5.81,0,*47
1496919680.9,13897,18.63,74110.3,14.03,-2.87,-6.27,0,*41
1496919682.12,13898,18.63,74108.3,14.05,-3.23,-6.63,0,*47
1496919683.31,13899,18.63,74108.0,14.13,-2.19,-5.51,0,*4B
1496919684.55,13900,18.63,74108.0,14.15,-2.83,-6.19,0,*40
1496919685.76,13901,18.63,74112.3,14.19,-2.83,-6.13,0,*47
1496919687.0,13902,18.63,74108.0,14.21,-1.83,-4.99,0,*4C
1496919688.22,13903,18.63,74108.8,14.25,-0.77,-3.79,0,*7A
1496919689.45,13904,18.63,74110.5,14.33,-1.33,-4.37,0,*46
1496919690.69,13905,18.63,74108.8,14.37,-1.79,-4.93,0,*43
1496919691.94,13906,18.63,74108.3,14.45,-1.05,-4.09,0,*4D
1496919693.14,13907,18.63,74108.0,14.47,-0.93,-4.09,0,*70
1496919694.37,13908,18.63,74108.0,14.53,-1.05,-3.91,0,*42
1496919695.61,13909,18.63,74114.3,14.59,-0.49,-3.59,0,*74
1496919696.79,13910,18.63,74108.3,14.65,-0.19,-3.19,0,*72
1496919698.0,13911,18.63,74114.8,14.69,-0.27,-3.15,0,*7E
1496919699.24,13912,18.63,74108.8,14.79,0.97,-1.83,0,*57
1496919700.49,13913,18.63,74110.8,14.87,1.13,-1.67,0,*60
1496919701.73,13914,18.63,74108.3,14.93,0.91,-1.83,0,*53
1496919702.99,13915,18.63,74108.0,15.03,0.17,-2.71,0,*5A
1496919704.2,13916,18.63,74110.3,15.09,0.59,-2.15,0,*5B
1496919705.41,13917,18.63,74110.0,15.15,-0.07,-2.95,0,*49
1496919706.62,13918,18.63,74108.8,15.21,-0.15,-3.03,0,*7C
1496919707.82,13919,18.63,74110.5,15.27,-1.33,-4.25,0,*4D
1496919709.07,13920,18.63,74108.3,15.29,-1.39,-4.33,0,*44
1496919710.28,13921,18.63,74110.5,15.35,-0.69,-3.59,0,*77
1496919711.47,13922,18.63,74104.3,15.43,-0.37,-3.27,0,*77
1496919712.66,13923,18.63,74108.0,15.49,-0.19,-3.03,0,*76
1496919713.85,13924,18.63,74108.0,15.53,-0.77,-3.79,0,*7F
1496919715.1,13925,18.63,74108.0,15.57,-1.95,-4.89,0,*4F
1496919716.28,13926,18.63,74106.3,15.61,-2.35,-5.47,0,*43
1496919717.52,13927,18.63,74110.3,15.67,-1.95,-4.99,0,*4F
1496919718.75,13928,18.63,74110.5,15.69,-1.39,-4.57,0,*4A
1496919719.95,13929,18.63,74108.5,15.75,-0.45,-3.39,0,*73
1496919721.16,13930,18.63,74110.0,15.79,0.05,-2.95,0,*69
1496919722.36,13931,18.63,74108.3,15.85,-0.03,-3.07,0,*4A
1496919723.58,13932,18.63,74108.0,15.93,-0.41,-3.63,0,*7A
1496919724.79,13933,18.63,74108.8,15.99,-0.85,-3.87,0,*73
1496919725.99,13934,18.63,74108.8,16.03,-0.37,-3.43,0,*75
1496919727.18,13935,18.63,74108.8,16.11,-0.73,-3.87,0,*7F
1496919728.42,13936,18.63,74110.3,16.13,-0.41,-3.51,0,*74
1496919729.66,13937,18.63,74108.3,16.21,-0.57,-3.59,0,*7B
1496919730.88,13938,18.63,74108.5,16.27,-0.33,-3.59,0,*70
1496919732.07,13939,18.63,74110.5,16.31,-0.57,-3.83,0,*73
1496919733.3,13940,18.63,74108.3,16.37,-1.21,-4.41,0,*42
1496919734.53,13941,18.63,74110.3,16.45,-1.01,-4.41,0,*44
1496919735.76,13942,18.63,74108.0,16.45,-1.13,-4.53,0,*47
1496919737.01,13943,18.63,74108.5,16.51,-1.59,-5.03,0,*49
1496919738.27,13944,18.63,74108.3,16.55,-1.99,-5.55,0,*45
1496919739.55,13945,18.63,74110.0,16.59,-1.47,-5.07,0,*4C
1496919740.82,13946,18.63,74108.5,16.63,-1.43,-5.03,0,*46
1496919742.08,13947,18.63,74110.3,16.71,-1.33,-4.85,0,*4C
1496919743.3,13948,18.63,74110.3,16.73,-1.67,-5.31,0,*4E
1496919744.55,13949,18.63,74110.3,16.77,-1.01,-4.57,0,*4A
1496919745.77,13950,18.63,74108.0,16.85,-1.29,-4.99,0,*47
1496919747.04,13951,18.63,74110.3,16.85,-1.43,-5.27,0,*4E
1496919748.26,13952,18.63,74108.5,16.91,-2.55,-6.43,0,*4D
1496919749.5,13953,18.63,74106.5,16.93,-3.15,-7.05,0,*48
1496919750.78,13954,18.63,74104.8,16.97,-1.99,-5.81,0,*43
1496919752.01,13955,18.63,74108.8,17.01,-2.59,-6.73,0,*4D
1496919753.26,13956,18.63,74110.8,17.01,-2.71,-6.81,0,*49
1496919754.49,13957,18.63,74112.3,17.07,-3.43,-7.69,0,*49
1496919755.71,13958,18.63,74112.0,17.09,-2.59,-6.73,0,*48
1496919756.96,13959,18.63,74106.8,17.11,-3.19,-7.35,0,*46
1496919758.16,13960,18.63,74108.8,17.13,-3.03,-7.23,0,*42
1496919759.34,13961,18.63,74108.0,17.17,-3.11,-7.49,0,*48
1496919760.61,13962,18.63,74108.0,17.19,-3.63,-8.11,0,*42
1496919761.86,13963,18.63,74106.0,17.21,-3.47,-7.91,0,*49
1496919763.06,13964,18.63,74108.0,17.21,-3.95,-8.41,0,*43
1496919764.28,13965,18.63,74108.3,17.23,-4.57,-9.27,0,*48
1496919765.52,13966,18.63,74108.8,17.23,-4.49,-9.11,0,*41
1496919766.78,13967,18.63,74106.0,17.27,-4.73,-9.57,0,*4F
1496919768.03,13968,18.63,74108.0,17.31,-4.01,-8.75,0,*43
1496919769.22,13969,18.63,74108.5,17.33,-4.57,-9.23,0,*41
1496919770.45,13970,18.63,74108.8,17.33,-4.77,-9.53,0,*4C
1496919771.67,13971,18.63,74106.5,17.35,-4.99,-9.89,0,*4C
1496919772.93,13972,18.63,74106.3,17.35,-5.23,-10.19,0,*7E
1496919774.19,13973,18.63,74106.0,17.35,-5.19,-10.15,0,*7A
1496919775.42,13974,18.63,74108.8,17.37,-4.81,-9.61,0,*44
1496919776.66,13975,18.63,74106.5,17.37,-4.69,-9.83,0,*4F
1496919777.89,13976,18.63,74108.8,17.41,-5.15,-10.23,0,*75
1496919779.09,13977,18.63,74106.5,17.41,-4.65,-9.71,0,*4D
1496919780.36,13978,18.63,74106.8,17.43,-7.27,-12.61,0,*7E
1496919781.61,13979,18.63,74104.0,17.43,-7.73,-12.97,0,*77
1496919782.84,13980,18.63,74110.5,17.43,-7.15,-12.43,0,*78
1496919784.09,13981,18.63,74108.3,17.43,-5.81,-11.15,0,*76
1496919785.35,13982,18.63,74106.8,17.43,-5.15,-10.35,0,*7B
1496919786.56,13983,18.63,74110.3,17.49,-3.55,-8.59,0,*41
1496919787.8,13984,18.63,74110.5,17.51,-4.33,-9.41,0,*40
1496919789.03,13985,18.63,74108.5,17.55,-4.99,-10.27,0,*7D
1496919790.28,13986,18.63,74106.3,17.55,-5.73,-11.15,0,*7B
1496919791.48,13987,18.63,74110.3,17.61,-4.65,-9.97,0,*48
1496919792.69,13988,18.63,74110.0,17.59,-4.17,-9.31,0,*45
1496919793.94,13989,18.63,74108.0,17.63,-4.21,-9.41,0,*4F
1496919795.17,13990,18.63,74110.8,17.67,-3.55,-8.67,0,*42
1496919796.39,13991,18.63,74110.3,17.73,-3.07,-8.17,0,*46
1496919797.63,13992,18.63,74110.5,17.77,-2.91,-8.11,0,*49
1496919798.83,13993,18.63,74108.0,17.83,-3.83,-9.23,0,*41
1496919800.06,13994,18.63,74110.5,17.85,-5.35,-10.89,0,*73
1496919801.31,13995,18.63,74106.3,17.87,-6.93,-12.53,0,*7A
1496919802.54,13996,18.63,74106.0,17.87,-7.15,-12.65,0,*73
1496919803.76,13997,18.63,74110.0,17.89,-5.55,-11.19,0,*72
1496919805.01,13998,18.63,74108.8,17.89,-6.63,-12.21,0,*73
1496919806.23,13999,18.63,74110.0,17.91,-6.59,-12.15,0,*75
1496919807.44,14000,18.63,74106.3,17.91,-7.27,-13.07,0,*71
1496919808.67,14001,18.63,74108.3,17.91,-7.57,-13.19,0,*78
1496919809.92,14002,18.63,74104.0,17.95,-5.89,-11.29,0,*7F
1496919811.15,14003,18.63,74110.3,17.95,-6.05,-11.63,0,*77
1496919812.39,14004,18.63,74108.3,17.99,-6.63,-12.15,0,*7E
1496919813.63,14005,18.63,74108.0,18.01,-7.69,-13.23,0,*7E
1496919814.87,14006,18.63,74108.8,18.01,-8.21,-13.79,0,*71
1496919816.12,14007,18.63,74110.0,17.99,-7.27,-12.75,0,*7A
1496919817.33,14008,18.63,74108.0,17.99,-6.73,-12.15,0,*73
1496919818.59,14009,18.63,74108.5,18.01,-6.35,-11.63,0,*7C
1496919819.82,14010,18.63,74110.3,18.03,-6.81,-12.11,0,*7F
1496919821.07,14011,18.63,74106.8,18.07,-6.89,-11.97,0,*7F
1496919822.33,14012,18.63,74108.0,18.07,-5.89,-11.01,0,*70
1496919823.57,14013,18.63,74108.0,18.11,-6.85,-11.85,0,*75
1496919824.83,14014,18.63,74108.5,18.11,-7.61,-12.89,0,*76
1496919826.1,14015,18.63,74112.3,18.11,-7.27,-12.15,0,*70
1496919827.33,14016,18.63,74108.0,18.13,-7.11,-11.97,0,*7D
1496919828.56,14017,18.63,74112.5,18.17,-6.31,-11.29,0,*7E
1496919829.82,14018,18.63,74108.0,18.19,-6.73,-11.51,0,*76
1496919831.02,14019,18.63,74108.3,18.21,-6.01,-10.57,0,*7E
1496919832.24,14020,18.63,74108.8,18.23,-6.77,-11.45,0,*75
1496919833.5,14021,18.63,74108.8,18.25,-6.63,-11.07,0,*71
1496919834.75,14022,18.63,74108.8,18.25,-6.93,-11.55,0,*7A
1496919835.98,14023,18.63,74108.0,18.27,-8.37,-12.97,0,*74
1496919837.22,14024,18.63,74106.0,18.27,-11.23,-15.99,0,*47
1496919838.47,14025,18.63,74110.8,18.27,-8.89,-13.37,0,*7C
1496919839.71,14026,18.63,74108.3,18.25,-9.49,-13.79,0,*7A
1496919840.96,14027,18.63,74110.3,18.23,-9.67,-13.87,0,*70
1496919842.17,14028,18.63,74110.5,18.25,-8.71,-12.97,0,*7F
1496919843.42,14029,18.63,74112.0,18.23,-9.45,-13.73,0,*75
1496919844.64,14030,18.63,74108.5,18.23,-8.29,-12.29,0,*78
1496919845.88,14031,18.63,74110.5,18.25,-8.71,-12.79,0,*77
1496919847.11,14032,18.63,74110.0,18.25,-8.37,-12.11,0,*78
1496919848.32,14033,18.63,74108.3,18.25,-7.87,-11.41,0,*7B
1496919849.54,14034,18.63,74110.0,18.29,-6.63,-10.27,0,*7A
1496919850.76,14035,18.63,74106.5,18.33,-7.83,-11.33,0,*7B
1496919852.01,14036,18.63,74108.8,18.31,-8.63,-12.07,0,*7F
1496919853.24,14037,18.63,74110.0,18.33,-9.11,-12.43,0,*78
1496919854.47,14038,18.63,74110.3,18.33,-8.97,-12.15,0,*7B
1496919855.73,14039,18.63,74110.0,18.35,-9.49,-12.65,0,*79
1496919856.98,14040,18.63,74106.8,18.37,-8.55,-11.55,0,*79
1496919858.24,14041,18.63,74112.0,18.37,-9.37,-12.47,0,*7D
1496919859.51,14042,18.63,74110.0,18.37,-9.45,-12.11,0,*78
1496919860.76,14043,18.63,74110.8,18.37,-10.01,-12.53,0,*47
1496919861.99,14044,18.63,74110.5,18.35,-8.67,-10.57,0,*7D
1496919863.26,14045,18.63,74106.5,18.41,-7.43,-9.15,0,*48
1496919864.47,14046,18.63,74108.3,18.43,-8.33,-9.83,0,*4E
1496919865.68,14047,18.63,74108.5,18.47,-8.25,-9.57,0,*45
1496919866.87,14048,18.63,74108.3,18.47,-8.75,-9.75,0,*4F
1496919868.09,14049,18.63,74110.5,18.49,-8.25,-9.01,0,*46
1496919869.29,14050,18.63,74110.0,18.51,-8.37,-8.85,0,*49
1496919870.51,14051,18.63,74110.0,18.51,-9.01,-9.15,0,*44
1496919871.74,14052,18.63,74106.5,18.53,-8.29,-8.03,0,*48
1496919872.95,14053,18.63,74110.0,18.53,-8.29,-7.53,0,*43
1496919874.19,14054,18.63,74106.0,18.55,-9.11,-7.99,0,*4E
1496919875.44,14055,18.63,74110.8,18.57,-8.41,-7.35,0,*4F
1496919876.66,14056,18.63,74108.5,18.59,-7.61,-6.47,0,*4B
1496919877.88,14057,18.63,74104.0,18.59,-7.99,-6.73,0,*4A
1496919879.07,14058,18.63,74102.5,18.63,-8.29,-7.11,0,*4D
1496919880.28,14059,18.63,74106.3,18.63,-8.67,-7.39,0,*4C
1496919881.53,14060,18.63,74108.3,18.65,-8.55,-7.39,0,*41
1496919882.77,14061,18.63,74104.5,18.65,-7.65,-6.47,0,*44
1496919883.99,14062,18.63,74108.5,18.67,-8.67,-7.43,0,*4D
1496919885.19,14063,18.63,74104.5,18.67,-8.75,-7.19,0,*40
1496919886.41,14064,18.63,74110.0,18.69,-7.61,-5.97,0,*47
1496919887.68,14065,18.63,74104.0,18.71,-7.43,-5.93,0,*4B
1496919888.91,14066,18.63,74106.5,18.73,-8.71,-7.35,0,*4A
1496919890.11,14067,18.63,74104.8,18.73,-8.59,-7.15,0,*43
1496919891.32,14068,18.63,74104.3,18.77,-7.91,-6.69,0,*49
1496919892.55,14069,18.63,74106.8,18.77,-8.71,-7.61,0,*40
1496919893.81,14070,18.63,74110.8,18.79,-8.93,-7.73,0,*49
1496919895.06,14071,18.63,74110.3,18.79,-7.73,-6.09,0,*45
1496919896.28,14072,18.63,74104.8,18.85,-5.97,-4.77,0,*46
1496919897.52,14073,18.63,74106.8,18.89,-6.63,-5.73,0,*46
1496919898.74,14074,18.63,74106.5,18.91,-7.15,-6.01,0,*4E
1496919899.95,14075,18.63,74108.8,18.93,-8.03,-6.73,0,*40
1496919901.2,14076,18.63,74108.8,18.95,-6.39,-5.11,0,*45
1496919902.44,14077,18.63,74110.0,18.99,-7.61,-6.35,0,*41
1496919903.67,14078,18.63,74104.0,19.03,-7.11,-5.65,0,*4D
1496919904.89,14079,18.63,74110.8,19.09,-8.21,-6.77,0,*4A
1496919906.1,14080,18.63,74108.5,19.11,-7.35,-5.97,0,*42
1496919907.32,14081,18.63,74110.0,19.13,-8.89,-7.53,0,*43
1496919908.55,14082,18.63,74110.3,19.13,-11.23,-9.89,0,*71
1496919909.75,14083,18.63,74108.0,19.11,-10.23,-8.85,0,*7E
1496919910.96,14084,18.63,74108.3,19.13,-9.79,-8.25,0,*46
1496919912.19,14085,18.63,74108.3,19.11,-9.31,-7.73,0,*45
1496919913.43,14086,18.63,74108.3,19.13,-8.51,-6.89,0,*47
1496919914.65,14087,18.63,74110.5,19.13,-8.45,-6.85,0,*4F
1496919915.89,14088,18.63,74108.0,19.17,-7.77,-6.01,0,*46
1496919917.16,14089,18.63,74110.3,19.17,-8.81,-6.93,0,*4A
1496919918.38,14090,18.63,74106.3,19.21,-8.85,-7.11,0,*48
1496919919.62,14091,18.63,74106.8,19.21,-8.21,-6.23,0,*47
1496919920.84,14092,18.63,74110.5,19.25,-8.55,-6.59,0,*4E
1496919922.07,14093,18.63,74106.3,19.25,-9.49,-7.53,0,*48
1496919923.29,14094,18.63,74108.8,19.25,-8.97,-7.11,0,*4B
1496919924.51,14095,18.63,74108.3,19.27,-8.07,-6.09,0,*49
1496919925.74,14096,18.63,74108.3,19.31,-7.99,-5.93,0,*45
1496919926.95,14097,18.63,74106.3,19.33,-9.05,-6.85,0,*49
1496919928.17,14098,18.63,74108.3,19.35,-8.71,-6.47,0,*4C
1496919929.42,14099,18.63,74106.8,19.35,-7.87,-5.65,0,*48
1496919930.64,14100,18.63,74106.3,19.35,-8.71,-6.69,0,*40
1496919931.91,14101,18.63,74106.0,19.39,-8.81,-7.31,0,*4E
1496919933.12,14102,18.63,74104.0,19.39,-10.05,-8.17,0,*73
1496919934.32,14103,18.63,74108.8,19.37,-10.89,-8.93,0,*74
1496919935.52,14104,18.63,74108.0,19.37,-10.89,-8.97,0,*77
1496919936.76,14105,18.63,74106.3,19.39,-9.93,-8.11,0,*45
1496919937.98,14106,18.63,74108.3,19.37,-8.81,-6.81,0,*4D
1496919939.24,14107,18.63,74110.3,19.39,-9.11,-7.23,0,*43
1496919940.46,14108,18.63,74110.0,19.39,-8.55,-6.51,0,*49
1496919941.74,14109,18.63,74110.8,19.43,-7.01,-4.89,0,*4C
1496919942.93,14110,18.63,74110.3,19.45,-8.59,-6.55,0,*43
1496919944.18,14111,18.63,74108.5,19.45,-9.45,-7.61,0,*48
1496919945.4,14112,18.63,74110.3,19.49,-8.11,-5.97,0,*4C
1496919946.63,14113,18.63,74108.5,19.49,-7.39,-5.55,0,*46
1496919947.83,14114,18.63,74110.3,19.53,-8.33,-6.23,0,*4D
1496919949.05,14115,18.63,74110.3,19.53,-10.05,-8.07,0,*78
1496919950.24,14116,18.63,74110.3,19.53,-8.17,-6.05,0,*4D
1496919951.46,14117,18.63,74110.8,19.53,-9.31,-7.27,0,*48
1496919952.66,14118,18.63,74108.5,19.53,-8.85,-7.11,0,*4C
1496919953.91,14119,18.63,74108.3,19.55,-9.31,-7.91,0,*4D
1496919955.13,14120,18.63,74112.5,19.55,-9.71,-8.17,0,*42
1496919956.4,14121,18.63,74108.0,19.55,-9.11,-7.39,0,*46
1496919957.61,14122,18.63,74108.3,19.59,-9.75,-8.17,0,*48
1496919958.83,14123,18.63,74108.8,19.57,-9.67,-8.11,0,*42
1496919960.03,14124,18.63,74106.8,19.57,-8.71,-7.23,0,*4D
1496919961.24,14125,18.63,74108.5,19.57,-8.97,-7.31,0,*47
1496919962.46,14126,18.63,74110.8,19.57,-9.23,-7.35,0,*4E
1496919963.68,14127,18.63,74108.5,19.57,-8.11,-6.13,0,*4A
1496919964.92,14128,18.63,74110.8,19.61,-7.01,-5.19,0,*47
1496919966.19,14129,18.63,74110.8,19.63,-7.57,-5.77,0,*4F
1496919967.43,14130,18.63,74108.3,19.65,-7.77,-6.05,0,*45
1496919968.67,14131,18.63,74110.0,19.67,-7.91,-5.93,0,*42
1496919969.91,14132,18.63,74110.0,19.71,-7.99,-6.23,0,*46
1496919971.14,14133,18.63,74110.0,19.71,-7.65,-5.55,0,*46
1496919972.39,14134,18.63,74110.0,19.71,-7.77,-5.69,0,*4D
1496919973.6,14135,18.63,74110.0,19.77,-6.31,-4.33,0,*47
1496919974.84,14136,18.63,74110.0,19.79,-7.35,-5.73,0,*4A
1496919976.06,14137,18.63,74110.0,19.81,-8.17,-6.77,0,*44
1496919977.31,14138,18.63,74106.8,19.85,-6.35,-4.85,0,*4E
1496919978.53,14139,18.63,74108.0,19.87,-5.73,-4.29,0,*4A
1496919979.77,14140,18.69,74112.5,19.89,-6.09,-4.73,0,*4B
1496919981.0,14141,18.63,74110.0,19.91,-7.19,-5.85,0,*4B
1496919982.22,14142,18.69,74110.8,19.95,-5.77,-4.25,0,*4D
1496919983.48,14143,18.63,74108.8,20.01,-4.89,-3.59,0,*47
1496919984.7,14144,18.63,74108.5,20.07,-6.05,-4.85,0,*46
1496919985.92,14145,18.63,74108.8,20.09,-6.77,-5.35,0,*46
1496919987.17,14146,18.63,74108.5,20.09,-6.47,-4.89,0,*40
1496919988.39,14147,18.63,74110.5,20.13,-5.39,-3.75,0,*44
1496919989.6,14148,18.63,74108.8,20.13,-5.43,-3.95,0,*48
1496919990.84,14149,18.63,74108.0,20.17,-5.07,-3.31,0,*43
1496919992.08,14150,18.63,74108.3,20.23,-5.27,-3.59,0,*40
1496919993.32,14151,18.63,74108.5,20.27,-5.69,-3.67,0,*42
1496919994.54,14152,18.63,74108.5,20.27,-5.93,-4.25,0,*45
1496919995.79,14153,18.63,74108.0,20.31,-6.89,-4.89,0,*4D
1496919997.06,14154,18.69,74108.3,20.31,-5.69,-3.71,0,*47
1496919998.28,14155,18.69,74110.5,20.35,-5.35,-3.79,0,*43
1496919999.5,14156,18.63,74108.3,20.35,-6.81,-4.99,0,*45
1496920000.75,14157,18.63,74104.8,20.39,-6.69,-4.81,0,*47
1496920001.98,14158,18.63,74104.3,20.39,-6.51,-4.21,0,*49
1496920003.2,14159,18.69,74108.0,20.43,-6.89,-4.49,0,*4E
1496920004.41,14160,18.63,74108.3,20.43,-6.59,-4.05,0,*41
1496920005.65,14161,18.63,74108.0,20.45,-5.77,-3.47,0,*48
1496920006.87,14162,18.69,74110.3,20.45,-5.39,-2.71,0,*45
1496920008.05,14163,18.69,74108.8,20.49,-4.99,-2.31,0,*47
1496920009.29,14164,18.63,74106.0,20.53,-4.81,-2.07,0,*47
1496920010.48,14165,18.63,74104.0,20.57,-4.45,-1.71,0,*48
1496920011.72,14166,18.63,74108.5,20.61,-4.37,-1.35,0,*4B
1496920012.92,14167,18.63,74104.8,20.63,-4.25,-1.21,0,*4E
1496920014.11,14168,18.63,74104.0,20.63,-4.37,-1.33,0,*41
1496920015.3,14169,18.63,74106.3,20.71,-3.87,-0.77,0,*7E
1496920016.52,14170,18.69,74110.0,20.71,-3.63,-0.53,0,*7A
1496920017.71,14171,18.63,74106.3,20.75,-3.87,-0.49,0,*7E
1496920018.93,14172,18.63,74104.3,20.77,-4.05,-0.69,0,*70
1496920020.11,14173,18.63,74104.3,20.79,-3.23,-0.03,0,*40
1496920021.34,14174,18.69,74108.8,20.83,-2.75,0.17,0,*58
1496920022.58,14175,18.63,74106.5,20.83,-3.63,-1.09,0,*4C
1496920023.84,14176,18.63,74108.5,20.89,-3.55,-1.05,0,*4C
1496920025.05,14177,18.63,74104.8,20.89,-4.21,-1.79,0,*42
1496920026.3,14178,18.63,74106.5,20.91,-5.11,-2.51,0,*4F
1496920027.51,14179,18.69,74110.5,20.93,-4.61,-1.99,0,*4D
1496920028.7,14180,18.63,74104.5,20.93,-6.05,-3.39,0,*43
1496920029.91,14181,18.69,74108.8,20.91,-6.93,-4.33,0,*42
1496920031.13,14182,18.63,74106.5,20.93,-6.97,-4.49,0,*4A
1496920032.34,14183,18.63,74108.3,20.91,-6.63,-4.29,0,*44
1496920033.57,14184,18.63,74106.0,20.89,-4.93,-2.79,0,*44
1496920034.77,14185,18.63,74106.3,20.91,-4.93,-2.79,0,*4C
1496920035.98,14186,18.69,74108.8,20.93,-5.85,-3.19,0,*4C
1496920037.17,14187,18.69,74108.0,20.97,-5.47,-2.15,0,*4A
1496920038.39,14188,18.63,74106.8,20.95,-6.39,-2.83,0,*42
1496920039.6,14189,18.63,74106.0,20.97,-5.81,-2.27,0,*4F
1496920040.79,14190,18.63,74106.0,20.97,-3.95,-0.69,0,*7C
1496920042.01,14191,18.69,74110.0,21.01,-5.55,-2.59,0,*48
1496920043.27,14192,18.63,74104.8,20.99,-5.77,-2.67,0,*46
1496920044.49,14193,18.69,74110.8,21.01,-6.23,-2.87,0,*4B
1496920045.73,14194,18.69,74108.0,20.99,-6.47,-2.63,0,*44
1496920046.94,14195,18.63,74104.5,21.01,-5.03,-1.63,0,*45
1496920048.19,14196,18.69,74108.0,20.99,-8.75,-5.11,0,*4B
1496920049.43,14197,18.69,74108.3,20.95,-6.93,-3.07,0,*41
1496920050.67,14198,18.69,74104.5,20.93,-6.19,-2.11,0,*4C
1496920051.89,14199,18.63,74104.0,20.93,-6.47,-2.07,0,*41
1496920053.13,14200,18.69,74104.0,20.93,-5.93,-1.95,0,*40
1496920054.35,14201,18.69,74106.8,20.93,-6.55,-2.51,0,*43
1496920055.59,14202,18.63,74106.8,20.93,-5.77,-2.07,0,*40
1496920056.8,14203,18.69,74106.8,20.91,-5.89,-2.27,0,*40
1496920058.03,14204,18.69,74110.0,20.91,-6.51,-2.63,0,*41
1496920059.28,14205,18.63,74104.3,20.89,-7.43,-3.67,0,*4E
1496920060.52,14206,18.63,74104.0,20.85,-5.61,-1.55,0,*40
1496920061.73,14207,18.69,74108.5,20.89,-4.21,-0.53,0,*7F
1496920062.95,14208,18.63,74108.5,20.85,-6.51,-4.05,0,*4E
1496920064.18,14209,18.63,74104.8,20.83,-7.39,-5.65,0,*41
1496920065.39,14210,18.63,74106.0,20.81,-8.29,-6.77,0,*45
1496920066.61,14211,18.69,74110.0,20.77,-5.97,-4.33,0,*47
1496920067.85,14212,18.63,74106.5,20.79,-5.07,-3.43,0,*43
1496920069.07,14213,18.69,74108.8,20.79,-5.07,-3.27,0,*40
1496920070.29,14214,18.69,74110.8,20.83,-5.03,-3.35,0,*45
1496920071.52,14215,18.69,74110.3,20.83,-5.27,-3.51,0,*40
1496920072.77,14216,18.63,74104.0,20.89,-4.21,-2.55,0,*4B
1496920073.98,14217,18.69,74110.5,20.89,-4.13,-2.39,0,*41
1496920075.17,14218,18.69,74108.3,20.93,-3.87,-2.43,0,*42
1496920076.38,14219,18.69,74108.0,20.95,-4.25,-3.15,0,*48
1496920077.61,14220,18.69,74106.3,20.97,-7.31,-7.05,0,*43
1496920078.82,14221,18.69,74106.5,20.93,-8.45,-8.51,0,*44
1496920080.02,14222,18.69,74106.3,20.91,-8.55,-9.05,0,*44
1496920081.21,14223,18.63,74104.0,20.89,-8.33,-8.67,0,*49
1496920082.43,14224,18.69,74108.0,20.85,-7.11,-7.23,0,*42
1496920083.67,14225,18.69,74108.5,20.83,-5.93,-6.23,0,*4C
1496920084.92,14226,18.63,74106.5,20.81,-6.59,-7.57,0,*4A
1496920086.15,14227,18.69,74108.8,20.83,-4.85,-5.93,0,*40
1496920087.36,14228,18.69,74110.0,20.83,-4.49,-5.81,0,*4C
1496920088.57,14229,18.69,74110.8,20.85,-4.45,-6.31,0,*4F
1496920089.81,14230,18.69,74110.3,20.89,-3.87,-5.89,0,*42
1496920091.08,14231,18.69,74110.8,20.89,-5.07,-7.43,0,*49
1496920092.31,14232,18.69,74108.5,20.89,-4.77,-7.19,0,*43
1496920093.54,14233,18.69,74106.8,20.93,-4.93,-7.35,0,*4D
1496920094.77,14234,18.69,74106.0,20.93,-4.77,-6.97,0,*49
1496920096.01,14235,18.69,74110.3,20.95,-4.05,-5.65,0,*45
1496920097.25,14236,18.69,74106.3,20.99,-4.09,-5.73,0,*41
1496920098.46,14237,18.63,74106.5,21.01,-2.71,-4.49,0,*41
1496920099.67,14238,18.69,74106.0,21.05,-4.01,-6.13,0,*46
1496920100.86,14239,18.69,74106.8,21.05,-4.57,-6.55,0,*46
1496920102.1,14240,18.69,74108.3,21.11,-4.05,-5.93,0,*43
1496920103.35,14241,18.69,74108.5,21.11,-3.87,-5.61,0,*42
1496920104.57,14242,18.69,74110.0,21.15,-2.95,-4.57,0,*43
1496920105.83,14243,18.69,74110.0,21.19,-1.87,-3.59,0,*47
1496920107.08,14244,18.69,74108.3,21.23,-3.59,-5.55,0,*42